TimeEDT,TemperatureF,Dew PointF,Humidity,Sea Level PressureIn,VisibilityMPH,Wind Direction,Wind SpeedMPH,Gust SpeedMPH,PrecipitationIn,Events,Conditions,WindDirDegrees,DateUTC
12:53 AM,25.0,21.9,88,29.83,10.0,Calm,Calm,-,N/A,,Mostly Cloudy,0,2013-03-21 04:53:00
2:53 AM,28.0,26.1,92,29.81,10.0,Calm,Calm,-,N/A,,Overcast,0,2013-03-21 06:53:00
3:53 AM,26.1,24.1,92,29.79,10.0,Calm,Calm,-,N/A,,Mostly Cloudy,0,2013-03-21 07:53:00
4:53 AM,23.0,21.0,92,29.78,9.0,Calm,Calm,-,N/A,,Scattered Clouds,0,2013-03-21 08:53:00
5:53 AM,21.9,19.9,92,29.77,10.0,Calm,Calm,-,N/A,,Clear,0,2013-03-21 09:53:00
6:53 AM,18.0,16.0,92,29.77,10.0,North,4.6,-,N/A,,Clear,10,2013-03-21 10:53:00
7:53 AM,32.0,26.1,79,29.77,10.0,NNE,5.8,-,N/A,,Partly Cloudy,30,2013-03-21 11:53:00
8:53 AM,37.0,27.0,67,29.76,10.0,NE,6.9,-,N/A,,Overcast,40,2013-03-21 12:53:00
9:53 AM,39.9,25.0,55,29.74,10.0,NE,11.5,-,N/A,,Overcast,50,2013-03-21 13:53:00
10:53 AM,42.1,21.9,45,29.71,10.0,NNE,12.7,-,N/A,,Mostly Cloudy,20,2013-03-21 14:53:00
11:17 AM,42.8,24.8,49,29.69,10.0,North,16.1,-,N/A,,Scattered Clouds,360,2013-03-21 15:17:00
11:53 AM,39.9,24.1,53,29.69,10.0,NNE,11.5,-,N/A,,Mostly Cloudy,20,2013-03-21 15:53:00
12:53 PM,42.1,23.0,47,29.65,10.0,NNE,11.5,-,N/A,,Overcast,20,2013-03-21 16:53:00
1:18 PM,39.2,24.8,56,29.64,10.0,NNE,15.0,-,N/A,,Overcast,20,2013-03-21 17:18:00
1:46 PM,39.2,23.0,52,29.63,10.0,NNE,15.0,-,N/A,,Overcast,30,2013-03-21 17:46:00
1:53 PM,39.9,23.0,51,29.64,10.0,NE,12.7,-,N/A,,Overcast,40,2013-03-21 17:53:00
2:19 PM,37.4,24.8,60,29.62,9.0,NE,17.3,21.9,0.00,,Overcast,40,2013-03-21 18:19:00
2:53 PM,37.9,26.1,62,29.61,10.0,NNE,12.7,23.0,0.00,,Overcast,20,2013-03-21 18:53:00
3:53 PM,37.0,26.1,65,29.59,10.0,NNE,13.8,23.0,N/A,,Overcast,30,2013-03-21 19:53:00
4:03 PM,39.2,26.6,61,29.58,10.0,NNE,16.1,21.9,N/A,,Overcast,20,2013-03-21 20:03:00
4:53 PM,36.0,27.0,70,29.57,10.0,North,15.0,24.2,N/A,,Partly Cloudy,10,2013-03-21 20:53:00
5:53 PM,35.1,27.0,72,29.57,10.0,NNE,13.8,23.0,N/A,,Overcast,20,2013-03-21 21:53:00
6:53 PM,34.0,28.0,79,29.59,10.0,North,13.8,-,N/A,,Overcast,350,2013-03-21 22:53:00
7:05 PM,33.8,28.4,81,29.59,9.0,North,15.0,-,0.00,Snow,Light Snow,350,2013-03-21 23:05:00
7:30 PM,32.0,28.4,87,29.59,1.8,North,11.5,-,0.00,Snow,Light Snow,350,2013-03-21 23:30:00
7:43 PM,32.0,28.4,87,29.59,2.0,North,12.7,19.6,0.00,Snow,Light Snow,350,2013-03-21 23:43:00
7:53 PM,30.9,28.9,92,29.59,2.0,North,10.4,-,0.00,Snow,Light Snow,350,2013-03-21 23:53:00
8:02 PM,30.2,28.4,93,29.60,1.5,NNW,13.8,-,0.00,Snow,Light Snow,340,2013-03-22 00:02:00
8:09 PM,30.2,30.2,100,29.60,1.5,NNW,12.7,-,0.00,Snow,Light Snow,340,2013-03-22 00:09:00
8:17 PM,30.2,30.2,100,29.60,1.0,NNW,11.5,-,0.01,Snow,Light Snow,330,2013-03-22 00:17:00
8:33 PM,30.2,30.2,100,29.60,0.8,NNW,13.8,21.9,0.01,Snow,Light Snow,340,2013-03-22 00:33:00
8:53 PM,30.9,30.0,96,29.60,0.8,North,11.5,-,0.01,Snow,Light Snow,350,2013-03-22 00:53:00
9:41 PM,30.2,30.2,100,29.59,1.0,North,11.5,-,0.02,Snow,Light Snow,350,2013-03-22 01:41:00
9:53 PM,30.9,30.0,96,29.59,2.0,North,10.4,-,0.02,Snow,Light Snow,350,2013-03-22 01:53:00
10:02 PM,30.2,30.2,100,29.58,1.5,North,12.7,-,0.00,Snow,Light Snow,350,2013-03-22 02:02:00
10:22 PM,30.2,30.2,100,29.58,1.0,North,15.0,-,0.01,Snow,Light Snow,350,2013-03-22 02:22:00
10:30 PM,30.2,30.2,100,29.58,0.8,North,11.5,-,0.01,Snow,Light Snow,350,2013-03-22 02:30:00
10:53 PM,30.9,30.0,96,29.58,1.0,NNW,12.7,-,0.01,Snow,Light Snow,340,2013-03-22 02:53:00
11:24 PM,30.2,30.2,100,29.59,0.8,NNW,12.7,-,0.01,Snow,Light Snow,330,2013-03-22 03:24:00
11:53 PM,30.9,30.0,96,29.59,0.8,NNW,11.5,-,0.01,Snow,Light Snow,330,2013-03-22 03:53:00